Regional Weather Roundup
Issued by NWS Charleston, SC

Current Version | Previous Version | Graphics & Text | Print | Product List | Glossary On
Versions: 1 2 3 4 5 6 7 8 9 10 11 12 13 14 15 16 17 18 19 20 21 22 23 24 25 26 27 28 29 30 31 32 33 34 35 36 37 38 39 40 41 42 43 44 45 46 47 48 49 50
000 ASUS42 KCHS 232328 RWRCHS REGIONAL WEATHER ROUNDUP NATIONAL WEATHER SERVICE CHARLESTON SC 700 PM EDT TUE AUG 23 2016 NOTE: "FAIR" INDICATES FEW OR NO CLOUDS BELOW 12,000 FEET WITH NO SIGNIFICANT WEATHER AND/OR OBSTRUCTIONS TO VISIBILITY. NOT ALL STATIONS ARE QUALITY CONTROLLED. USE DATA WITH CAUTION... ESPECIALLY DEWPOINT OBSERVATIONS. SCZ027-030-031-034>040-042>050-240000- ...SOUTHEAST SOUTH CAROLINA... CITY SKY/WX TMP DP RH WIND PRES REMARKS N CHARLESTON PTSUNNY 84 67 56 E13 30.20S WATERFRONT PRK N/A 86 73 65 E15 30.18S HX 93 MOUNT PLEASANT FAIR 82 70 65 CALM 30.20S JOHNS ISLAND FAIR 82 72 69 E9G15 30.19S PINOPOLIS N/A 84 72 65 CALM 30.14R MONCKS CORNER FAIR 81 68 65 SE3 30.21R SUMMERVILLE FAIR 84 70 61 E6 30.21S BEAUFORT MCAS PTSUNNY 84 73 69 E12 30.18F HX 90 BEAUFORT ARPT FAIR 82 72 69 E10 30.18S HILTON HEAD IS PTSUNNY 86 73 66 NE7 30.18F HX 93 WALTERBORO PTCLDY 84 70 61 SE7 30.19S ALLENDALE MOCLDY 86 72 62 SE9 30.18R HX 92 ...SOUTHERN MIDLANDS AND PEE DEE... CITY SKY/WX TMP DP RH WIND PRES REMARKS GEORGETOWN FAIR 81 64 57 E7 30.22S KINGSTREE FAIR 81 64 57 E9 30.21S ORANGEBURG PTSUNNY 87 68 52 E8 30.19F HX 90 BARNWELL NOT AVBL AIKEN FAIR 86 66 51 E5 30.23S MANNING FAIR 82 70 65 SE3 30.20F COLUMBIA MOSUNNY 89 66 46 SE10 30.18F HX 91 SUMTER MOSUNNY 89 66 46 SE7 30.17F HX 91 FLORENCE MOSUNNY 86 68 54 SE9 30.21R MYRTLE BEACH NOT AVBL N MYRTLE BEACH CLEAR 84 64 50 E8 30.21F $$ GAZ063-065-086>088-099>101-113>116-118-119-134>141-150-240000- ...SOUTHEAST GEORGIA... CITY SKY/WX TMP DP RH WIND PRES REMARKS SAVANNAH ARPT CLOUDY 85 71 63 E12 30.17F HX 90 HUNTER AAF CLOUDY 84 76 78 E10 30.15F HX 93 FORT STEWART CLOUDY 80 76 89 CALM 30.15S STATESBORO PTSUNNY 83 76 79 SE3 30.18S HX 92 SYLVANIA MOCLDY N/A N/A N/A CALM 30.19S CLAXTON FAIR 82 77 85 CALM 30.18R ...CSRA...CENTRAL AND FAR SOUTHEAST GEORGIA... CITY SKY/WX TMP DP RH WIND PRES REMARKS THOMSON PTSUNNY 89 72 55 MISG 30.23R HX 96 AUGUSTA-BUSH MOSUNNY 91 68 46 E7 30.16S HX 95 AUGUSTA-DANIEL PTSUNNY 92 65 40 E8 30.18F HX 94 SWAINSBORO FAIR 82 73 74 S5 30.19S VIDALIA CLOUDY 81 79 94 SE3 30.18S EASTMAN FAIR 84 69 61 SE6 30.20S HAZLEHURST FAIR 80 80 100 CALM 30.17S HX 90 ALMA CLOUDY 78 76 93 SE6 30.16F WAYCROSS N/A 80 79 96 CALM 30.16S JESUP FAIR 77 77 100 CALM 30.17R BAXLEY FAIR 77 77 100 CALM 30.17S BRUNSWICK CLOUDY 82 79 89 NE5 30.16F HX 93 SAINT SIMONS CLOUDY 85 74 69 E10 30.14F HX 92 $$ SCZ027-028-034-036>038-045-046-048>050-GAZ119-141-240000- ...LAKE AND SUPPLEMENTAL COASTAL OBSERVATIONS... STATION/POSITION TIME TEMP WIND PRES WAVE SWELL AIR SEA DIR/SP/G HT/PER HT/PER/DIR (UTC) (F) (DEG/KT/KT) (MB) (FT/S) (FT/S/D) WINYAH BAY 2245 83 100/ 9 1022.0S LAKE MURRAY 2200 89 60/ 1/ 8 1021.7S ACE BASIN NERRS 2200 87 110/ 3 1023.0R FORT PULASKI 2300 84 87 80/ 14/ 17 1022.0F SAPELO ISLAND 2300 84 70/ 7 1021.0F $$ ANZ835-935-AMZ111-154-330-350-352-354-370-450-454-472-240000- ...C-MAN AND BUOY OBSERVATIONS... STATION/POSITION TIME TEMP WIND PRES WAVE SWELL AIR SEA DIR/SP/G HT/PER HT/PER/DIR (UTC) (F) (DEG/KT/KT) (MB) (FT/S) (FT/S/D) BUOY 41004 2250 83 85 80/ 16/ 17 1021.8F 4/ 7 2/100/ 7 BUOY 41008 2250 84 85 80/ 16/ 17 1020.8F 3/ 5 FOLLY BEACH CMAN 2300 83 80/ 14/ 16 1022.7F CAPERS NEARSHORE 2308 83 86 90/ 14/ 17 1022.4R FRIPP NEARSHORE 2308 84 87 90/ 16/ 19 1021.3F STATION/POSITION TIME TEMP WIND PRES WAVE SWELL AIR SEA DIR/SP/G HT/PER HT/PER/DIR (UTC) (F) (DEG/KT/KT) (MB) (FT/S) (FT/S/D) 5E ST. MARYS GA 2301 84 N/A 2/ 3 FRYING PAN BUOY 2300 83 85 60/ 14/ 17 1022.8S BUOY 41025 2250 80 85 30/ 17/ 23 1023.6R 4/ 6 2/ 60/ 8 CAPE LOOKOUT NC 2300 80 50/ 16/ 18 1023.6R BUOY 41002 2250 83 85 50/ 14/ 16 1020.8F 4/ 7 2/ 20/ 7 BUOY 41010 NOT AVBL ST AUGUSTINE FL 2300 83 87 30/ 9/ 11 1021.5R $$

USA.gov is the U.S. government's official web portal to all federal, state and local government web resources and services.